Chehalis, WA
on Friday, December 14, 2012

Friday
Previous Day Next Day
Daily Summary
 ActualAverage (KOLM)Record (KOLM)
Temperature
Mean Temperature °F 38°F  
Max Temperature 44°F 44°F 59°F (1952)
Min Temperature 35°F 32°F 15°F (1967)
Degree Days
Heating Degree Days 26 27  
Month to date heating degree days 367  
Since 1 July heating degree days 1812  
Cooling Degree Days 0 0  
Month to date cooling degree days 0  
Year to date cooling degree days 106  
Moisture
Dew Point 37°F   
Average Humidity 91    
Maximum Humidity 100    
Minimum Humidity 71    
Precipitation
Precipitation 0.10 in 0.23 in 2.31 in (1959)
Month to date precipitation 3.60  
Year to date precipitation 46.14  
Wind
Wind Speed 7 mph   
Max Wind Speed 15 mph   
Max Gust Speed 22 mph   
Visibility 7 miles   
Events Fog , Rain   

Key: T is trace of precipitation, MM is missing value
Source: NWS Daily Summary
Time(PST)TemperatureDew PointHumidity Pressure Visibility Wind DirectionWind SpeedGust SpeedPrecipitationEvents Conditions
12:15 AM 39.2°F 37.4°F 93% 29.83 in 4.0 miles South 8.1 mph - 0.01 in Rain Light Rain
12:35 AM 39.2°F 37.4°F 93% 29.83 in 5.0 miles South 8.1 mph - 0.02 in Rain Light Rain
12:55 AM 39.2°F 37.4°F 93% 29.83 in 7.0 miles South 10.4 mph - 0.03 in Rain Light Rain
1:15 AM 39.2°F 37.4°F 93% 29.82 in 7.0 miles South 9.2 mph - 0.01 in Rain Light Rain
1:35 AM 39.2°F 37.4°F 93% 29.82 in 5.0 miles South 8.1 mph - 0.02 in Rain Light Rain
1:55 AM 39.2°F 37.4°F 93% 29.81 in 10.0 miles South 10.4 mph - 0.03 in Rain Light Rain
2:15 AM 39.2°F 37.4°F 93% 29.81 in 8.0 miles South 11.5 mph 16.1 mph N/A Rain Light Rain
2:35 AM 39.2°F 37.4°F 93% 29.81 in 9.0 miles South 11.5 mph 19.6 mph 0.02 in Rain Light Rain
2:55 AM 39.2°F 37.4°F 93% 29.81 in 10.0 miles South 12.7 mph 19.6 mph 0.02 in Rain Light Rain
3:15 AM 39.2°F 37.4°F 93% 29.80 in 10.0 miles South 11.5 mph 18.4 mph N/A   Overcast
3:35 AM 39.2°F 37.4°F 93% 29.80 in 10.0 miles South 13.8 mph 20.7 mph N/A   Overcast
3:55 AM 39.2°F 37.4°F 93% 29.80 in 10.0 miles South 13.8 mph 21.9 mph N/A   Overcast
4:15 AM 39.2°F 35.6°F 87% 29.79 in 10.0 miles South 15.0 mph 21.9 mph N/A   Overcast
4:35 AM 39.2°F 35.6°F 87% 29.79 in 10.0 miles South 13.8 mph 19.6 mph N/A   Overcast
4:55 AM 39.2°F 37.4°F 93% 29.79 in 10.0 miles South 12.7 mph 18.4 mph N/A   Overcast
5:15 AM 39.2°F 37.4°F 93% 29.80 in 10.0 miles South 12.7 mph 18.4 mph N/A   Overcast
5:35 AM 39.2°F 37.4°F 93% 29.80 in 5.0 miles South 10.4 mph - N/A   Overcast
5:55 AM 39.2°F 37.4°F 93% 29.80 in 9.0 miles South 10.4 mph 18.4 mph N/A   Overcast
6:15 AM 39.2°F 37.4°F 93% 29.81 in 5.0 miles South 8.1 mph - N/A   Overcast
6:35 AM 39.2°F 37.4°F 93% 29.81 in 5.0 miles South 9.2 mph - N/A   Overcast
6:55 AM 39.2°F 37.4°F 93% 29.81 in 7.0 miles SSE 8.1 mph - N/A   Overcast
7:15 AM 39.2°F 37.4°F 93% 29.82 in 5.0 miles SSE 4.6 mph - N/A   Overcast
7:35 AM 39.2°F 37.4°F 93% 29.83 in 3.0 miles SSE 5.8 mph - 0.01 in Rain Light Rain
7:55 AM 39.2°F 37.4°F 93% 29.83 in 3.0 miles South 5.8 mph - 0.01 in   Overcast
8:15 AM 39.2°F 37.4°F 93% 29.84 in 4.0 miles South 4.6 mph - N/A   Overcast
8:35 AM 39.2°F 37.4°F 93% 29.85 in 5.0 miles SSE 3.5 mph - N/A   Overcast
8:55 AM 39.2°F 37.4°F 93% 29.86 in 4.0 miles Calm Calm - N/A   Overcast
9:15 AM 39.2°F 37.4°F 93% 29.86 in 5.0 miles SSE 4.6 mph - N/A   Overcast
9:35 AM 39.2°F 37.4°F 93% 29.87 in 5.0 miles Calm Calm - N/A   Overcast
9:55 AM 39.2°F 37.4°F 93% 29.88 in 8.0 miles NE 3.5 mph - N/A   Overcast
10:15 AM 39.2°F 37.4°F 93% 29.88 in 10.0 miles NNE 3.5 mph - N/A   Overcast
10:35 AM 39.2°F 37.4°F 93% 29.89 in 5.0 miles ENE 3.5 mph - N/A   Overcast
11:15 AM 41.0°F 39.2°F 93% 29.90 in 7.0 miles Calm Calm - N/A   Overcast
11:35 AM 41.0°F 39.2°F 93% 29.90 in 10.0 miles NNE 3.5 mph - N/A   Overcast
11:55 AM 41.0°F 39.2°F 93% 29.90 in 10.0 miles North 3.5 mph - N/A   Overcast
12:15 PM 41.0°F 39.2°F 93% 29.90 in 10.0 miles Calm Calm - N/A   Overcast
12:35 PM 41.0°F 39.2°F 93% 29.91 in 10.0 miles North 3.5 mph - N/A   Overcast
12:55 PM 42.8°F 39.2°F 87% 29.91 in 5.0 miles North 4.6 mph - N/A   Overcast
1:15 PM 44.6°F 39.2°F 81% 29.91 in 10.0 miles NNW 4.6 mph - N/A   Mostly Cloudy
1:35 PM 44.6°F 37.4°F 76% 29.91 in 10.0 miles Calm Calm - N/A   Mostly Cloudy
1:55 PM 44.6°F 37.4°F 76% 29.92 in 10.0 miles WNW 3.5 mph - N/A   Overcast
2:15 PM 44.6°F 37.4°F 76% 29.92 in 10.0 miles Calm Calm - N/A   Overcast
2:35 PM 44.6°F 37.4°F 76% 29.93 in 10.0 miles NNE 3.5 mph - N/A   Overcast
2:55 PM 44.6°F 35.6°F 71% 29.93 in 10.0 miles ENE 4.6 mph - N/A   Mostly Cloudy
3:15 PM 44.6°F 35.6°F 71% 29.94 in 10.0 miles Calm Calm - N/A   Mostly Cloudy
3:35 PM 44.6°F 35.6°F 71% 29.95 in 10.0 miles Calm Calm - N/A   Mostly Cloudy
3:55 PM 44.6°F 35.6°F 71% 29.95 in 10.0 miles ESE 4.6 mph - N/A   Overcast
4:15 PM 42.8°F 35.6°F 76% 29.95 in 10.0 miles Calm Calm - N/A   Overcast
4:35 PM 41.0°F 35.6°F 81% 29.94 in 10.0 miles ESE 3.5 mph - N/A   Mostly Cloudy
5:35 PM 35.6°F 35.6°F 100% 29.95 in 10.0 miles Calm Calm - N/A   Clear
5:55 PM 35.6°F 35.6°F 100% 29.96 in 10.0 miles West 3.5 mph - N/A   Clear
6:15 PM 35.6°F 35.6°F 100% 29.96 in 1.2 miles SSW 3.5 mph - N/A   Mostly Cloudy
6:35 PM 37.4°F 37.4°F 100% 29.96 in 0.2 miles SSW 3.5 mph - N/A Fog Fog
6:55 PM 37.4°F 37.4°F 100% 29.96 in 0.2 miles Calm Calm - 0.01 in Fog Fog
7:15 PM 37.4°F 35.6°F 93% 29.96 in 1.8 miles Calm Calm - N/A   Overcast
7:35 PM 35.6°F 35.6°F 100% 29.97 in 1.2 miles Calm Calm - N/A   Overcast
7:55 PM 35.6°F 35.6°F 100% 29.96 in 0.2 miles Calm Calm - N/A Fog Fog
8:15 PM 35.6°F 35.6°F 100% 29.97 in 0.5 miles Calm Calm - N/A Fog Fog
8:35 PM 37.4°F 35.6°F 93% 29.96 in 4.0 miles SW 3.5 mph - N/A   Overcast
8:55 PM 37.4°F 37.4°F 100% 29.97 in 7.0 miles SSW 3.5 mph - N/A   Overcast
9:15 PM 37.4°F 37.4°F 100% 29.97 in 10.0 miles South 6.9 mph - N/A   Overcast
9:35 PM 37.4°F 37.4°F 100% 29.97 in 5.0 miles South 6.9 mph - N/A   Overcast
9:55 PM 37.4°F 37.4°F 100% 29.97 in 5.0 miles South 8.1 mph - N/A   Overcast
10:15 PM 39.2°F 37.4°F 93% 29.96 in 6.0 miles South 6.9 mph - N/A   Overcast
10:35 PM 39.2°F 37.4°F 93% 29.96 in 8.0 miles South 5.8 mph - N/A   Overcast
10:55 PM 37.4°F 37.4°F 100% 29.95 in 9.0 miles South 9.2 mph - N/A   Overcast
11:15 PM 37.4°F 35.6°F 93% 29.96 in 10.0 miles South 6.9 mph - N/A   Overcast
11:35 PM 37.4°F 35.6°F 93% 29.95 in 10.0 miles South 6.9 mph - N/A   Overcast
11:55 PM 37.4°F 35.6°F 93% 29.94 in 10.0 miles SSE 8.1 mph - N/A   Overcast
Moon Phase
Dec. 14 Dec. 20 Dec. 28 Jan. 04 Jan. 11
Sunrise:07:49 AM (PST) Moon Rise:08:55 AM (PST)12/14
Sunset:04:24 PM (PST) Moon Set:06:28 PM (PST)12/14

Copyright © 2014 The Weather Underground, Inc.